"timestamp";"minute";"mean_h";"std_h";"mean_l";"std_l"
2019-10-31T23:00:56;1;-105.88824;2.3853889;-105.821;2.4003267
2019-10-31T23:05:56;1;-105.91909;2.4818635;-105.77331;2.450338
2019-10-31T23:10:56;1;-106.02912;2.3252995;-105.97222;2.3500931
2019-10-31T23:15:56;1;-106.00644;2.4174726;-106.20288;2.364731
2019-10-31T23:20:56;1;-105.94305;2.4747763;-105.97152;2.5063586
2019-10-31T23:25:56;1;-105.668076;2.402376;-105.72616;2.4088988
2019-10-31T23:30:56;1;-105.68656;2.386856;-105.59923;2.4302683
2019-10-31T23:35:56;1;-105.62168;2.4959624;-105.59701;2.5322099
2019-10-31T23:40:56;1;-105.560936;2.5211766;-105.48254;2.5244331
2019-10-31T23:45:56;1;-105.603485;2.4651084;-105.82255;2.3929913
2019-10-31T23:50:56;1;-105.5967;2.4926293;-105.524895;2.516838
2019-10-31T23:55:56;1;-105.74626;2.4664474;-105.79077;2.4217227
2019-11-01T00:00:56;1;-105.71536;2.4210496;-105.731636;2.3756964
2019-11-01T00:05:56;1;-105.52283;2.538305;-105.473434;2.6585212
2019-11-01T00:10:56;1;-105.44428;2.47798;-105.3772;2.458257
2019-11-01T00:15:56;1;-105.2371;2.3620024;-105.27093;2.262921
2019-11-01T00:20:56;1;-105.33128;2.5403206;-105.22955;2.577464
2019-11-01T00:25:56;1;-105.37599;2.3946962;-105.374695;2.426275
2019-11-01T00:30:56;1;-105.455414;2.4425213;-105.55311;2.434095
2019-11-01T00:35:56;1;-105.62612;2.480503;-105.661865;2.4898324
2019-11-01T00:40:56;1;-105.49886;2.4667182;-105.61243;2.5179975
2019-11-01T00:45:56;1;-105.51569;2.459952;-105.457924;2.5222857
2019-11-01T00:50:56;1;-105.46688;2.4808104;-105.48986;2.4627156
2019-11-01T00:55:56;1;-105.54135;2.458793;-105.407845;2.4397514
2019-11-01T01:00:56;1;-105.31086;2.4878497;-105.41126;2.3863096
2019-11-01T01:05:56;1;-105.29067;2.3941631;-105.27999;2.4064798
2019-11-01T01:10:56;1;-105.4119;2.4488778;-105.40086;2.353731
2019-11-01T01:15:56;1;-105.54852;2.4552042;-105.674324;2.4220376
2019-11-01T01:20:56;1;-105.55371;2.4309888;-105.584595;2.418774
2019-11-01T01:25:56;1;-105.535706;2.4426527;-105.57856;2.3956687
2019-11-01T01:30:56;1;-105.47242;2.2898364;-105.442955;2.3134937
2019-11-01T01:35:56;1;-105.446236;2.3917744;-105.520386;2.3514135
2019-11-01T01:40:56;1;-105.495766;2.4081428;-105.5954;2.4387305
2019-11-01T01:45:56;1;-105.37762;2.4597201;-105.455925;2.4841797
2019-11-01T01:50:56;1;-105.14755;2.4241002;-105.2443;2.293418
2019-11-01T01:55:56;1;-105.42448;2.4677937;-105.52055;2.4230042
2019-11-01T02:00:56;1;-105.43529;2.4723368;-105.2886;2.5172017
2019-11-01T02:05:56;1;-105.34616;2.4676414;-105.33103;2.5550673
2019-11-01T02:10:56;1;-105.44672;2.3869612;-105.47443;2.4547932
2019-11-01T02:15:56;1;-105.376465;2.4438756;-105.47171;2.4963055
2019-11-01T02:20:56;1;-105.29272;2.4587622;-105.19954;2.501185
2019-11-01T02:25:56;1;-105.48375;2.3173847;-105.42829;2.2686806
2019-11-01T02:30:56;1;-105.30788;2.4760156;-105.40266;2.4944813
2019-11-01T02:35:56;1;-105.15896;2.4633498;-105.24727;2.5474522
2019-11-01T02:40:56;1;-105.28847;2.405117;-105.22351;2.3974576
2019-11-01T02:45:56;1;-105.30916;2.4172323;-105.36533;2.419184
2019-11-01T02:50:56;1;-105.21229;2.467763;-105.11973;2.416134
2019-11-01T02:55:56;1;-105.47574;2.4532135;-105.65622;2.411907
2019-11-01T03:00:56;1;-105.349434;2.473211;-105.35052;2.5239482
2019-11-01T03:05:56;1;-105.61069;2.4054475;-105.55615;2.3868926
2019-11-01T03:10:56;1;-105.50354;2.3805916;-105.54402;2.4303071
2019-11-01T03:15:56;1;-105.36814;2.4873085;-105.38557;2.429094
2019-11-01T03:20:56;1;-105.254906;2.5145605;-105.24483;2.4567778
2019-11-01T03:25:56;1;-105.28497;2.4642239;-105.33903;2.4296393
2019-11-01T03:30:56;1;-105.40099;2.4772086;-105.43001;2.4536538
2019-11-01T03:35:56;1;-105.490814;2.508406;-105.3577;2.5630155
2019-11-01T03:40:56;1;-105.390114;2.4385474;-105.24401;2.4469235
2019-11-01T03:45:56;1;-105.610565;2.3214748;-105.65095;2.2467804
2019-11-01T03:50:56;1;-105.568;2.4213617;-105.530594;2.4990704
2019-11-01T03:55:56;1;-105.64141;2.381533;-105.67416;2.4126058
2019-11-01T04:00:56;1;-105.52825;2.403521;-105.65811;2.3664672
2019-11-01T04:05:56;1;-105.27484;2.4197998;-105.18012;2.4822407
2019-11-01T04:10:56;1;-105.202156;2.499086;-105.0148;2.5846114
2019-11-01T04:15:56;1;-105.41135;2.4835932;-105.54976;2.490042
2019-11-01T04:20:56;1;-105.52429;2.5200758;-105.33734;2.540375
2019-11-01T04:25:56;1;-105.34733;2.4509022;-105.47829;2.451411
2019-11-01T04:30:56;1;-105.193;2.5188076;-105.25766;2.526332
2019-11-01T04:35:56;1;-105.21095;2.5084164;-105.23442;2.4238997
2019-11-01T04:40:56;1;-105.52366;2.511994;-105.54557;2.5971088
2019-11-01T04:45:56;1;-105.603004;2.4295235;-105.60898;2.4147289
2019-11-01T04:50:56;1;-105.60619;2.4013953;-105.58116;2.36183
2019-11-01T04:55:56;1;-105.486374;2.4192715;-105.40455;2.4299858
2019-11-01T05:00:56;1;-105.5138;2.425772;-105.40995;2.3377357
2019-11-01T05:05:56;1;-105.43528;2.5394084;-105.286674;2.6496522
2019-11-01T05:10:56;1;-105.6009;2.4911613;-105.54942;2.448356
2019-11-01T05:15:56;1;-105.45711;2.5407252;-105.34969;2.5528567
2019-11-01T05:20:56;1;-105.22719;2.4031534;-105.14869;2.359319
2019-11-01T05:25:56;1;-105.24116;2.5005882;-105.31128;2.5059056
2019-11-01T05:30:56;1;-105.48744;2.442643;-105.482155;2.3980255
2019-11-01T05:35:56;1;-105.58512;2.514999;-105.519554;2.5560493
2019-11-01T05:40:56;1;-105.90535;2.4077408;-105.80299;2.4056659
2019-11-01T05:45:56;1;-105.39962;2.4763865;-105.53161;2.2715461
2019-11-01T05:50:56;1;-105.52932;2.4694307;-105.429184;2.463676
2019-11-01T05:55:56;1;-105.27598;2.4649198;-105.31502;2.4115655
2019-11-01T06:00:56;1;-104.446594;2.7050343;-103.625534;2.8562317
2019-11-01T06:05:56;1;-105.69839;2.4361193;-105.74166;2.4848316
2019-11-01T06:10:56;1;-105.59351;2.4320269;-105.57835;2.513403
2019-11-01T06:15:56;1;-105.55093;2.50149;-105.45315;2.5447989
2019-11-01T06:20:56;1;-105.47279;2.5659769;-105.50607;2.6026344
2019-11-01T06:25:56;1;-105.48937;2.5948448;-105.51756;2.6724308
2019-11-01T06:30:56;1;-105.58348;2.437916;-105.71324;2.4080617
2019-11-01T06:35:56;1;-105.30834;2.4840047;-105.305626;2.5255835
2019-11-01T06:40:56;1;-105.72695;2.405369;-105.793274;2.4899518
2019-11-01T06:45:56;1;-105.27788;2.4276135;-105.35489;2.4090693
2019-11-01T06:50:56;1;-105.14451;2.416766;-105.377426;2.3818543
2019-11-01T06:55:56;1;-105.00239;2.6507695;-105.56087;2.5732667
2019-11-01T07:00:56;1;-105.16625;2.5857835;-105.55289;2.5452497
2019-11-01T07:05:56;1;-105.62054;2.4419932;-105.70052;2.4201608
2019-11-01T07:10:56;1;-105.29344;2.6916134;-105.70585;2.6094823
2019-11-01T07:15:56;1;-105.59636;2.4967167;-105.57652;2.479908
2019-11-01T07:20:56;1;-105.3386;2.493977;-105.51062;2.3560622
2019-11-01T07:25:56;1;-105.5408;2.5258162;-105.83105;2.4822004
2019-11-01T07:30:56;1;-104.64779;2.8275886;-105.62675;2.539668
2019-11-01T07:35:56;1;-105.66476;2.4320116;-105.97901;2.3496277
2019-11-01T07:40:56;1;-104.882416;2.6338243;-105.22383;2.449651
2019-11-01T07:45:56;1;-105.16075;2.5176015;-105.1668;2.5148363
2019-11-01T07:50:56;1;-105.335686;2.4533143;-105.51239;2.4060512
2019-11-01T07:55:56;1;-105.39853;2.5647485;-105.568565;2.4895127
2019-11-01T08:00:56;1;-105.31494;2.619398;-105.43502;2.5887797
2019-11-01T08:05:56;1;-105.18887;2.5143878;-105.397545;2.5312316
2019-11-01T08:10:56;1;-105.17029;2.5605848;-105.3162;2.537641
2019-11-01T08:15:56;1;-104.92172;2.500727;-105.0389;2.4006572
2019-11-01T08:20:56;1;-105.23851;2.598315;-105.56399;2.5243874
2019-11-01T08:25:56;1;-105.04962;2.4902616;-105.35114;2.4553418
2019-11-01T08:30:56;1;-105.29604;2.5169795;-105.52662;2.5381885
2019-11-01T08:35:56;1;-105.073;2.5270152;-105.62345;2.3957803
2019-11-01T08:40:56;1;-105.551674;2.4403224;-105.77288;2.4321303
2019-11-01T08:45:56;1;-105.27977;2.4790242;-105.296555;2.5243301
2019-11-01T08:50:56;1;-105.42046;2.42191;-105.60032;2.3972971
2019-11-01T08:55:56;1;-104.999825;2.5767157;-105.18748;2.4822237
2019-11-01T09:00:56;1;-105.05309;2.5236394;-105.2758;2.447062
2019-11-01T09:05:56;1;-105.30715;2.5070524;-105.61533;2.4305375
2019-11-01T09:10:56;1;-105.1514;2.5263515;-105.328835;2.4635456
2019-11-01T09:15:56;1;-105.207016;2.4615178;-105.12176;2.4361105
2019-11-01T09:20:56;1;-105.370415;2.4512155;-105.54448;2.4996939
2019-11-01T09:25:56;1;-105.10425;2.516217;-105.16602;2.5266492
2019-11-01T09:30:56;1;-105.18126;2.459625;-105.26701;2.4366872
2019-11-01T09:35:56;1;-105.04842;2.4215667;-105.043304;2.4115257
2019-11-01T09:40:56;1;-104.99849;2.4375226;-105.11518;2.3708136
2019-11-01T09:45:56;1;-105.08891;2.510609;-105.17784;2.436331
2019-11-01T09:50:56;1;-105.20811;2.5017745;-105.26689;2.4499428
2019-11-01T09:55:56;1;-105.28977;2.5057802;-105.44165;2.501974
2019-11-01T10:00:56;1;-105.08381;2.4797914;-105.05011;2.458408
2019-11-01T10:05:56;1;-105.05699;2.4694333;-105.0713;2.486295
2019-11-01T10:10:56;1;-104.86964;2.5198054;-105.043205;2.4473875
2019-11-01T10:15:56;1;-105.28557;2.4504254;-105.453705;2.4184937
2019-11-01T10:20:56;1;-105.415794;2.542691;-105.479355;2.5359957
2019-11-01T10:25:56;1;-105.35489;2.5363998;-105.292946;2.5131228
2019-11-01T10:30:56;1;-105.38552;2.4928615;-105.48855;2.517314
2019-11-01T10:35:56;1;-105.4044;2.4750316;-105.4925;2.4055855
2019-11-01T10:40:56;1;-105.18613;2.5702906;-105.35527;2.5205333
2019-11-01T10:45:56;1;-105.23822;2.4857695;-105.31795;2.4411604
2019-11-01T10:50:56;1;-105.47781;2.402108;-105.54586;2.4213138
2019-11-01T10:55:56;1;-105.32315;2.5194707;-105.404655;2.4235094
2019-11-01T11:00:56;1;-105.471054;2.4906168;-105.374214;2.4936197
2019-11-01T11:05:56;1;-105.30377;2.439087;-105.31805;2.5290399
2019-11-01T11:10:56;1;-105.51039;2.4999132;-105.57691;2.479025
2019-11-01T11:15:56;1;-105.301186;2.4269347;-105.40035;2.4440603
2019-11-01T11:20:56;1;-105.19059;2.4274487;-105.14289;2.4527676
2019-11-01T11:25:56;1;-105.06153;2.5672321;-105.08097;2.6206384
2019-11-01T11:30:56;1;-105.136314;2.554221;-105.0822;2.504851
2019-11-01T11:35:56;1;-104.894615;2.4873784;-104.98687;2.557055
2019-11-01T11:40:56;1;-105.05356;2.4912705;-105.07721;2.5020993
2019-11-01T11:45:56;1;-105.09198;2.5088882;-105.01848;2.5599651
2019-11-01T11:50:56;1;-104.70028;2.4908252;-104.81789;2.4048712
2019-11-01T11:55:56;1;-104.672966;2.4645734;-104.77825;2.4267223
2019-11-01T12:00:56;1;-105.00154;2.4868455;-104.97889;2.498903
2019-11-01T12:05:56;1;-105.02591;2.4926295;-104.985275;2.431004
2019-11-01T12:10:56;1;-105.06959;2.467005;-105.1027;2.4555702
2019-11-01T12:15:56;1;-104.93773;2.537559;-105.14721;2.436394
2019-11-01T12:20:56;1;-104.84341;2.4833634;-104.98711;2.4984782
2019-11-01T12:25:56;1;-105.05235;2.4356844;-105.0221;2.465366
2019-11-01T12:30:56;1;-104.88295;2.4409528;-104.8584;2.3364499
2019-11-01T12:35:56;1;-105.1877;2.4701536;-105.2081;2.370953
2019-11-01T12:40:56;1;-105.171104;2.4541414;-105.25113;2.3939266
2019-11-01T12:45:56;1;-105.001366;2.4324157;-105.019165;2.4691193
2019-11-01T12:50:56;1;-105.05511;2.5560737;-105.15209;2.4955251
2019-11-01T12:55:56;1;-105.215126;2.5272746;-105.25423;2.4789171
2019-11-01T13:00:56;1;-104.80505;2.545724;-105.0359;2.5132349
2019-11-01T13:05:56;1;-104.69398;2.5224395;-104.91907;2.4374855
2019-11-01T13:10:56;1;-104.74935;2.478931;-104.94218;2.3771975
2019-11-01T13:15:56;1;-105.192986;2.4932356;-105.16003;2.453405
2019-11-01T13:20:56;1;-104.82883;2.5820904;-105.17186;2.4433138
2019-11-01T13:25:56;1;-105.08707;2.4789934;-105.115005;2.4929862
2019-11-01T13:30:56;1;-104.78887;2.6712444;-104.7542;2.7208214
2019-11-01T13:35:56;1;-104.95353;2.4769604;-104.90872;2.3824968
2019-11-01T13:40:56;1;-104.82487;2.467205;-104.88737;2.461557
2019-11-01T13:45:56;1;-104.6807;2.5019088;-104.87013;2.4909916
2019-11-01T13:50:56;1;-105.02877;2.5239284;-104.975464;2.5075312
2019-11-01T13:55:56;1;-104.85549;2.5283422;-104.74645;2.5618103
2019-11-01T14:00:56;1;-105.08919;2.465678;-105.13713;2.5135658
2019-11-01T14:05:56;1;-105.165726;2.4761577;-105.28651;2.397825
2019-11-01T14:10:56;1;-104.90617;2.3589928;-104.99845;2.3239958
2019-11-01T14:15:56;1;-104.62493;2.4701748;-104.83306;2.4137883
2019-11-01T14:20:56;1;-104.752106;2.476492;-104.78356;2.4825532
2019-11-01T14:25:56;1;-104.70631;2.5634255;-104.993614;2.5313835
2019-11-01T14:30:56;1;-105.05277;2.4180787;-104.910126;2.521637
2019-11-01T14:35:56;1;-105.20811;2.4736047;-105.37376;2.37611
2019-11-01T14:40:56;1;-104.17333;2.8129742;-105.22579;2.4353566
2019-11-01T14:45:56;1;-104.66156;2.4202654;-104.75038;2.4531775
2019-11-01T14:50:56;1;-104.65691;2.5259025;-104.72441;2.478423
2019-11-01T14:55:56;1;-105.03135;2.5526893;-105.10747;2.548264
2019-11-01T15:00:56;1;-104.64765;2.534472;-105.00398;2.4900625
2019-11-01T15:05:56;1;-104.95361;2.5489137;-105.16536;2.414947
2019-11-01T15:10:56;1;-104.963554;2.5032;-104.97697;2.5992217
2019-11-01T15:15:56;1;-104.999306;2.4308968;-105.04317;2.4321737
2019-11-01T15:20:56;1;-104.961044;2.4739697;-104.96301;2.4769351
2019-11-01T15:25:56;1;-104.564224;2.5270748;-104.98488;2.4223258
2019-11-01T15:30:56;1;-104.730225;2.576853;-105.02902;2.458361
2019-11-01T15:35:56;1;-104.6346;2.6031964;-104.8889;2.685339
2019-11-01T15:40:56;1;-104.861336;2.483658;-105.00991;2.4737217
2019-11-01T15:45:56;1;-104.567665;2.508693;-105.06603;2.3766742
2019-11-01T15:50:56;1;-104.79088;2.4944308;-105.115;2.4614692
2019-11-01T15:55:56;1;-104.733315;2.5492187;-104.95853;2.5381036
2019-11-01T16:00:56;1;-104.22509;2.5968761;-104.57022;2.5573227
2019-11-01T16:05:56;1;-104.68509;2.555573;-104.8491;2.5636525
2019-11-01T16:10:56;1;-104.85066;2.492124;-105.01815;2.4234352
2019-11-01T16:15:56;1;-104.74007;2.4678724;-104.65798;2.481854
2019-11-01T16:20:56;1;-104.99825;2.4467065;-104.9927;2.513662
2019-11-01T16:25:56;1;-105.05426;2.4934843;-105.17305;2.51498
2019-11-01T16:30:56;1;-105.37994;2.3897555;-105.38743;2.422257
2019-11-01T16:35:56;1;-105.18982;2.4979138;-105.19473;2.4863567
2019-11-01T16:40:56;1;-105.20294;2.435996;-105.02822;2.4575982
2019-11-01T16:45:56;1;-105.1471;2.5487778;-105.125595;2.512435
2019-11-01T16:50:56;1;-105.294266;2.4903038;-105.21478;2.5313227
2019-11-01T16:55:56;1;-105.29415;2.4602883;-105.305;2.5299199
2019-11-01T17:00:56;1;-105.23061;2.48389;-105.16982;2.474873
2019-11-01T17:05:56;1;-105.27895;2.4436517;-105.29741;2.39469
2019-11-01T17:10:56;1;-104.97231;2.4774885;-104.77657;2.511824
2019-11-01T17:15:56;1;-105.09804;2.5352347;-105.05307;2.462744
2019-11-01T17:20:56;1;-105.02622;2.511069;-104.97456;2.548951
2019-11-01T17:25:56;1;-104.724174;2.4768746;-104.65805;2.4904044
2019-11-01T17:30:56;1;-104.89415;2.5004108;-105.03457;2.3815827
2019-11-01T17:35:56;1;-104.995155;2.5163786;-104.87535;2.559861
2019-11-01T17:40:56;1;-104.93616;2.5647984;-105.025444;2.4669428
2019-11-01T17:45:56;1;-104.7229;2.5155632;-104.614136;2.5135956
2019-11-01T17:50:56;1;-105.14563;2.4566913;-105.20163;2.472665
2019-11-01T17:55:56;1;-105.0785;2.436221;-105.07725;2.4318523
2019-11-01T18:00:56;1;-105.02517;2.4319284;-105.04788;2.4258335
2019-11-01T18:05:56;1;-104.829575;2.463556;-104.811165;2.5650463
2019-11-01T18:10:56;1;-105.392975;2.4595542;-105.32971;2.576863
2019-11-01T18:15:56;1;-104.91128;2.442056;-104.80838;2.483582
2019-11-01T18:20:56;1;-104.7004;2.5790763;-104.7801;2.5467842
2019-11-01T18:25:56;1;-104.922386;2.4270272;-104.76138;2.3923216
2019-11-01T18:30:56;1;-104.96246;2.541389;-104.94647;2.5515275
2019-11-01T18:35:56;1;-104.99607;2.475785;-105.04868;2.4798598
2019-11-01T18:40:56;1;-105.05919;2.4191935;-104.99926;2.388164
2019-11-01T18:45:56;1;-104.966995;2.4076028;-105.01648;2.2960842
2019-11-01T18:50:56;1;-104.66007;2.451865;-104.7889;2.3874147
2019-11-01T18:55:56;1;-104.75577;2.489332;-104.8125;2.4852817
2019-11-01T19:00:56;1;-105.0156;2.3809147;-105.01847;2.3845916
2019-11-01T19:05:56;1;-104.894554;2.4474432;-104.756065;2.5140734
2019-11-01T19:10:56;1;-104.95386;2.504656;-104.90675;2.5090437
2019-11-01T19:15:56;1;-105.191574;2.4827242;-105.174126;2.6098228
2019-11-01T19:20:56;1;-104.82324;2.4873426;-105.00124;2.4596972
2019-11-01T19:25:56;1;-104.71267;2.459035;-104.5926;2.502619
2019-11-01T19:30:56;1;-104.877365;2.4220142;-104.75971;2.3954394
2019-11-01T19:35:56;1;-104.83347;2.4722962;-104.757164;2.5479047
2019-11-01T19:40:56;1;-104.71314;2.4164624;-104.62153;2.529325
2019-11-01T19:45:56;1;-104.78118;2.5131707;-104.829544;2.4979367
2019-11-01T19:50:56;1;-104.83247;2.462619;-104.837166;2.5637903
2019-11-01T19:55:56;1;-104.81451;2.475017;-104.86477;2.5275333
2019-11-01T20:00:56;1;-104.64135;2.5588458;-104.805916;2.4978337
2019-11-01T20:05:56;1;-105.059784;2.4575565;-104.949844;2.439156
2019-11-01T20:10:56;1;-104.501236;2.503829;-104.40846;2.6163473
2019-11-01T20:15:56;1;-104.71611;2.4410944;-104.80114;2.3878047
2019-11-01T20:20:56;1;-104.60378;2.4981155;-104.56116;2.6047857
2019-11-01T20:25:56;1;-104.81594;2.4849777;-104.94289;2.3759694
2019-11-01T20:30:56;1;-104.759895;2.3842862;-104.748276;2.3542075
2019-11-01T20:35:56;1;-104.84188;2.4872255;-104.78885;2.4505863
2019-11-01T20:40:56;1;-104.68389;2.4974875;-104.73365;2.3921475
2019-11-01T20:45:56;1;-104.781525;2.4903028;-104.8566;2.5229492
2019-11-01T20:50:56;1;-104.90929;2.5393944;-104.77795;2.5348434
2019-11-01T20:55:56;1;-104.68745;2.4807446;-104.735855;2.378979
2019-11-01T21:00:56;1;-104.96069;2.439227;-104.97031;2.4994924
2019-11-01T21:05:56;1;-104.79975;2.4314835;-104.62542;2.3996725
2019-11-01T21:10:56;1;-104.98508;2.548748;-105.01653;2.5765276
2019-11-01T21:15:56;1;-105.007645;2.5255556;-104.961716;2.5878003
2019-11-01T21:20:56;1;-104.76789;2.5137694;-104.69587;2.5059056
2019-11-01T21:25:56;1;-105.051186;2.50696;-105.2173;2.4816432
2019-11-01T21:30:56;1;-104.91557;2.5191944;-104.91451;2.4730601
2019-11-01T21:35:56;1;-104.839516;2.5225215;-104.64403;2.5578728
2019-11-01T21:40:56;1;-104.66232;2.5042613;-104.5197;2.5455773
2019-11-01T21:45:56;1;-104.862885;2.3986259;-104.82455;2.4027808
2019-11-01T21:50:56;1;-104.78031;2.4029453;-104.87291;2.4621317
2019-11-01T21:55:56;1;-104.963684;2.4732106;-104.94149;2.4911597
2019-11-01T22:00:56;1;-105.0838;2.4869742;-104.95736;2.5840592
2019-11-01T22:05:56;1;-105.09585;2.440747;-105.096695;2.461801
2019-11-01T22:10:56;1;-105.98564;2.508604;-105.838524;2.4984531
2019-11-01T22:15:56;1;-106.06795;2.54363;-106.0566;2.5231967
2019-11-01T22:20:56;1;-106.01684;2.4867058;-106.1053;2.4756072
2019-11-01T22:25:56;1;-105.95014;2.4690742;-105.973854;2.41136
2019-11-01T22:30:56;1;-106.169876;2.4602802;-106.13956;2.5304704
2019-11-01T22:35:56;1;-106.088745;2.5180345;-106.07019;2.5404568
2019-11-01T22:40:56;1;-106.20827;2.4547126;-106.23701;2.4364645
2019-11-01T22:45:56;1;-106.066444;2.464994;-106.27763;2.478283
2019-11-01T22:50:56;1;-106.249;2.4745028;-106.31552;2.4329677
2019-11-01T22:55:56;1;-106.0949;2.4808366;-106.13345;2.5156958
2019-11-01T23:00:56;1;-106.19401;2.477995;-106.115364;2.447348
2019-11-01T23:05:56;1;-105.81582;2.5535498;-105.66955;2.5265446
2019-11-01T23:10:56;1;-105.56915;2.5273058;-105.41276;2.5090086
2019-11-01T23:15:56;1;-106.09966;2.4951875;-105.986946;2.444426
2019-11-01T23:20:56;1;-106.108215;2.5258672;-106.194626;2.5204732
2019-11-01T23:25:56;1;-106.02434;2.531434;-105.95805;2.5349703
2019-11-01T23:30:56;1;-106.00862;2.5089521;-105.96138;2.5330865
2019-11-01T23:35:56;1;-105.94862;2.535831;-105.90257;2.5364368
2019-11-01T23:40:56;1;-106.19267;2.5279336;-106.047104;2.4925597
2019-11-01T23:45:56;1;-106.07291;2.4793317;-105.93926;2.5103452
2019-11-01T23:50:56;1;-106.00229;2.5301518;-105.735565;2.4928076
2019-11-01T23:55:56;1;-103.96459;2.4532287;-103.951416;2.4834497
2019-11-02T00:00:56;1;-104.165115;2.49669;-104.26516;2.426346
2019-11-02T00:05:56;1;-104.1952;2.4814143;-104.27221;2.4579263
2019-11-02T00:10:56;1;-104.127594;2.4145095;-104.173096;2.3168468
2019-11-02T00:15:56;1;-104.22647;2.4690328;-104.17972;2.4611096
2019-11-02T00:20:56;1;-104.32107;2.5324306;-104.34219;2.5578547
2019-11-02T00:25:56;1;-104.398315;2.5029244;-104.23108;2.5811908
2019-11-02T00:30:56;1;-104.37962;2.48933;-104.40035;2.4739544
2019-11-02T00:35:56;1;-104.243576;2.4836597;-104.15991;2.4679852
2019-11-02T00:40:56;1;-104.222946;2.4909017;-104.140335;2.589461
2019-11-02T00:45:56;1;-104.13489;2.5084448;-104.13431;2.577985
2019-11-02T00:50:56;1;-104.17251;2.432775;-104.14643;2.4476006
2019-11-02T00:55:56;1;-104.43936;2.4369674;-104.51357;2.4099288
2019-11-02T01:00:56;1;-104.2287;2.449726;-104.218056;2.406476
2019-11-02T01:05:56;1;-104.26938;2.4459102;-104.40183;2.4330494
2019-11-02T01:10:56;1;-104.26215;2.471454;-104.254196;2.5033646
2019-11-02T01:15:56;1;-104.12085;2.4808276;-104.172104;2.5202816
2019-11-02T01:20:56;1;-104.216576;2.459028;-104.09095;2.45265
2019-11-02T01:25:56;1;-104.025055;2.5822282;-104.12565;2.5098236
2019-11-02T01:30:56;1;-104.10843;2.4850461;-104.125626;2.4140136
2019-11-02T01:35:56;1;-103.96976;2.5394325;-104.16176;2.5081558
2019-11-02T01:40:56;1;-104.19039;2.4979932;-104.284096;2.4460676
2019-11-02T01:45:56;1;-103.98601;2.5052714;-104.035675;2.4599016
2019-11-02T01:50:56;1;-104.169655;2.436766;-104.21033;2.3569543
2019-11-02T01:55:56;1;-104.20395;2.365011;-104.16236;2.3767586
2019-11-02T02:00:56;1;-104.27738;2.4317522;-104.23069;2.4537451
2019-11-02T02:05:56;1;-104.295654;2.481814;-104.303894;2.5153396
2019-11-02T02:10:56;1;-104.03474;2.5323966;-104.07329;2.433345
2019-11-02T02:15:56;1;-104.00714;2.4623668;-104.07135;2.501612
2019-11-02T02:20:56;1;-104.26006;2.5196016;-104.393776;2.4579175
2019-11-02T02:25:56;1;-104.17455;2.5233958;-104.12949;2.5691743
2019-11-02T02:30:56;1;-104.19465;2.5110295;-104.23877;2.547161
2019-11-02T02:35:56;1;-104.071884;2.5398052;-104.11584;2.59233
2019-11-02T02:40:56;1;-104.05108;2.542189;-103.95262;2.5065103
2019-11-02T02:45:56;1;-104.12751;2.4724247;-103.990845;2.4499667
2019-11-02T02:50:56;1;-104.18479;2.5197556;-104.0266;2.574715
2019-11-02T02:55:56;1;-104.0207;2.487123;-104.02767;2.369636
2019-11-02T03:00:56;1;-103.995415;2.476963;-104.072495;2.4679413
2019-11-02T03:05:56;1;-104.0888;2.465958;-104.15639;2.505492
2019-11-02T03:10:56;1;-103.971954;2.4838328;-103.923035;2.5110774
2019-11-02T03:15:56;1;-103.95023;2.4242039;-103.95125;2.3703792
2019-11-02T03:20:56;1;-104.15432;2.4204192;-104.22614;2.4275427
2019-11-02T03:25:56;1;-104.19455;2.4201627;-104.13073;2.4397902
2019-11-02T03:30:56;1;-104.025925;2.4446325;-104.09244;2.3769267
2019-11-02T03:35:56;1;-104.09888;2.4063225;-104.169846;2.4193845
2019-11-02T03:40:56;1;-104.026794;2.4877844;-103.94391;2.5342128
2019-11-02T03:45:56;1;-104.11575;2.5087943;-104.08097;2.4689384
2019-11-02T03:50:56;1;-104.24886;2.4501698;-104.256546;2.4530709
2019-11-02T03:55:56;1;-104.15995;2.4902945;-104.236465;2.5462499
2019-11-02T04:00:56;1;-104.122635;2.413997;-104.08109;2.4336433
2019-11-02T04:05:56;1;-104.07491;2.465586;-104.077644;2.5030587
2019-11-02T04:10:56;1;-104.01268;2.5601547;-104.04838;2.6476305
2019-11-02T04:15:56;1;-104.023186;2.555869;-104.174675;2.5230622
2019-11-02T04:20:56;1;-104.29954;2.4350066;-104.12164;2.4817173
2019-11-02T04:25:56;1;-104.12332;2.5412745;-104.26769;2.4289627
2019-11-02T04:30:56;1;-104.03316;2.4573505;-104.157555;2.5339491
2019-11-02T04:35:56;1;-104.26553;2.3852296;-104.297104;2.3916125
2019-11-02T04:40:56;1;-104.21413;2.4530072;-104.2135;2.458617
2019-11-02T04:45:56;1;-104.20525;2.4764059;-104.256294;2.376946
2019-11-02T04:50:56;1;-104.126854;2.4726653;-104.13841;2.46741
2019-11-02T04:55:56;1;-104.1491;2.4325519;-104.203674;2.405655
2019-11-02T05:00:56;1;-104.21245;2.454237;-104.27296;2.41782
2019-11-02T05:05:56;1;-104.014496;2.4070284;-103.9906;2.4566627
2019-11-02T05:10:56;1;-104.14278;2.4288661;-104.06692;2.4161716
2019-11-02T05:15:56;1;-104.30319;2.4348867;-104.29157;2.4477532
2019-11-02T05:20:56;1;-104.46596;2.359019;-104.24804;2.4009411
2019-11-02T05:25:56;1;-104.34619;2.5020661;-104.475365;2.4654264
2019-11-02T05:30:56;1;-104.26101;2.4819098;-104.08287;2.4977512
2019-11-02T05:35:56;1;-105.081635;2.501578;-105.009384;2.525638
2019-11-02T05:40:56;1;-104.860535;2.4442155;-104.971115;2.340112
2019-11-02T05:45:56;1;-104.77669;2.5019023;-104.756325;2.456255
2019-11-02T05:50:56;1;-105.00757;2.4919043;-105.155754;2.482022
2019-11-02T05:55:56;1;-105.122154;2.4085648;-105.15956;2.3293009
2019-11-02T06:00:56;1;-104.94852;2.4363909;-104.91465;2.4898324
2019-11-02T06:05:56;1;-104.90218;2.5352502;-105.04387;2.531229
2019-11-02T06:10:56;1;-104.93818;2.4994147;-104.85122;2.4985137